Weather History for Auburn, IN

Change the Weather History Date:

Sunday, May 6, 2012

  Actual Average (KFWA) Record (KFWA)
Temperature  
Mean Temperature 18 °C 14 °C  
Max Temperature 25 °C 21 °C 31 °C (1949)
Min Temperature 10 °C 8 °C -1 °C (1968)
Degree Days  
Heating Degree Days 2 8  
Month to date heating degree days 55  
Since 1 July heating degree days 5937  
Cooling Degree Days 0 1  
Month to date cooling degree days 2  
Year to date cooling degree days 10  
Growing Degree Days 14 (Base 50)    
Moisture  
Dew Point 6 °C    
Average Humidity 52    
Maximum Humidity 88    
Minimum Humidity 25    
Precipitation  
Precipitation 0.00 mm 2.79 mm 2.41 mm (1948)
Month to date precipitation 0.67  
Year to date precipitation 11.20  
Snow  
Snow 0.00 cm 0.00 cm T cm (1989)
Month to date snowfall 0.0  
Since 1 July snowfall 33.5  
Snow Depth -    
Sea Level Pressure  
Sea Level Pressure 1017 hPa    
Wind  
Wind Speed 10 km/h (East)    
Max Wind Speed 23 km/h    
Max Gust Speed 29 km/h    
Visibility 16 kilometers    
Events      
T = Trace of Precipitation, MM = Missing Value Source: NWS Daily Summary

Daily Weather History Graph

Daily Weather History Graph

Search for Another Location

Airport:

Trip Planner

Search our weather history database for the weather conditions in past years. The results will help you decide how hot, cold, wet, or windy it might be!

Date:

Astronomy

May. 06, 2012 Rise Set
Actual Time 6:30 AM EDT 8:43 PM EDT
Civil Twilight 6:00 AM EDT 9:14 PM EDT
Nautical Twilight 5:22 AM EDT 9:51 PM EDT
Astronomical Twilight 4:41 AM EDT 10:33 PM EDT
Moon 9:48 PM EDT (5/6) 6:40 AM EDT (5/6)
Length of Visible Light 15h 13m
Length of Day
14h 12m
Full, 100% of the Moon is Illuminated
May 6
Full
May 12
Last Quarter
May 20
New
May 28
First Quarter
Jun 4
Full

Hourly Weather History & Observations

Time (EDT) Temp. Dew Point Humidity Pressure Visibility Wind Dir Wind Speed Gust Speed Precip Events Conditions
12:15 AM 14.0 °C 11.0 °C 82% 1018.2 hPa 16.1 km East 7.4 km/h / 2.1 m/s - N/A   Clear
12:35 AM 15.0 °C 11.0 °C 77% 1018.2 hPa 16.1 km East 7.4 km/h / 2.1 m/s - N/A   Clear
12:55 AM 13.0 °C 11.0 °C 88% 1018.2 hPa 16.1 km East 9.3 km/h / 2.6 m/s - N/A   Clear
1:15 AM 14.0 °C 11.0 °C 82% 1017.5 hPa 16.1 km ESE 11.1 km/h / 3.1 m/s - N/A   Clear
1:35 AM 14.0 °C 10.0 °C 77% 1017.5 hPa 16.1 km East 7.4 km/h / 2.1 m/s - N/A   Clear
1:55 AM 14.0 °C 8.0 °C 67% 1017.5 hPa 16.1 km ESE 7.4 km/h / 2.1 m/s - N/A   Clear
2:15 AM 13.0 °C 8.0 °C 72% 1017.2 hPa 16.1 km ESE 7.4 km/h / 2.1 m/s - N/A   Clear
2:35 AM 12.0 °C 8.0 °C 77% 1016.8 hPa 16.1 km ESE 5.6 km/h / 1.5 m/s - N/A   Clear
2:55 AM 12.0 °C 8.0 °C 77% 1016.8 hPa 16.1 km ESE 7.4 km/h / 2.1 m/s - N/A   Clear
3:15 AM 12.0 °C 7.0 °C 72% 1016.8 hPa 16.1 km East 5.6 km/h / 1.5 m/s - N/A   Clear
3:35 AM 11.0 °C 7.0 °C 76% 1017.2 hPa 16.1 km Calm Calm - N/A   Clear
3:55 AM 11.0 °C 7.0 °C 76% 1016.5 hPa 16.1 km ESE 7.4 km/h / 2.1 m/s - N/A   Clear
4:15 AM 12.0 °C 7.0 °C 72% 1016.8 hPa 16.1 km East 5.6 km/h / 1.5 m/s - N/A   Clear
4:35 AM 11.0 °C 7.0 °C 76% 1017.5 hPa 16.1 km NNE 5.6 km/h / 1.5 m/s - N/A   Clear
4:55 AM 10.0 °C 7.0 °C 82% 1017.8 hPa 16.1 km NNE 5.6 km/h / 1.5 m/s - N/A   Clear
5:15 AM 10.0 °C 8.0 °C 87% 1018.2 hPa 16.1 km NE 5.6 km/h / 1.5 m/s - N/A   Clear
5:35 AM 11.0 °C 8.0 °C 82% 1018.2 hPa 16.1 km NE 11.1 km/h / 3.1 m/s - N/A   Clear
5:55 AM 11.0 °C 7.0 °C 76% 1017.5 hPa 16.1 km East 9.3 km/h / 2.6 m/s - N/A   Scattered Clouds
6:15 AM 11.0 °C 7.0 °C 76% 1018.2 hPa 16.1 km ENE 9.3 km/h / 2.6 m/s - N/A   Mostly Cloudy
7:15 AM 11.0 °C 7.0 °C 76% 1018.8 hPa 16.1 km East 9.3 km/h / 2.6 m/s - N/A   Clear
7:35 AM 11.0 °C 7.0 °C 76% 1019.2 hPa 16.1 km ENE 9.3 km/h / 2.6 m/s - N/A   Clear
7:55 AM 12.0 °C 8.0 °C 77% 1019.2 hPa 16.1 km ENE 14.8 km/h / 4.1 m/s - N/A   Clear
8:15 AM 13.0 °C 8.0 °C 72% 1018.8 hPa 16.1 km East 13.0 km/h / 3.6 m/s - N/A   Clear
8:35 AM 13.0 °C 8.0 °C 72% 1019.2 hPa 16.1 km East 14.8 km/h / 4.1 m/s - N/A   Clear
8:55 AM 14.0 °C 8.0 °C 67% 1019.2 hPa 16.1 km East 16.7 km/h / 4.6 m/s - N/A   Clear
9:15 AM 15.0 °C 7.0 °C 59% 1019.2 hPa 16.1 km East 16.7 km/h / 4.6 m/s - N/A   Clear
9:35 AM 16.0 °C 7.0 °C 55% 1019.2 hPa 16.1 km East 11.1 km/h / 3.1 m/s - N/A   Clear
9:55 AM 16.0 °C 7.0 °C 55% 1018.8 hPa 16.1 km ESE 9.3 km/h / 2.6 m/s - N/A   Clear
10:35 AM 18.0 °C 7.0 °C 49% 1018.5 hPa 16.1 km East 13.0 km/h / 3.6 m/s - N/A   Clear
10:55 AM 18.0 °C 6.0 °C 45% 1018.5 hPa 16.1 km East 11.1 km/h / 3.1 m/s - N/A   Clear
11:15 AM 20.0 °C 6.0 °C 40% 1018.5 hPa 16.1 km East 11.1 km/h / 3.1 m/s - N/A   Clear
11:35 AM 20.0 °C 6.0 °C 40% 1018.2 hPa 16.1 km East 11.1 km/h / 3.1 m/s - N/A   Clear
11:55 AM 21.0 °C 5.0 °C 35% 1017.8 hPa 16.1 km East 13.0 km/h / 3.6 m/s - N/A   Clear
12:15 PM 21.0 °C 5.0 °C 35% 1018.2 hPa 16.1 km East 11.1 km/h / 3.1 m/s - N/A   Clear
12:35 PM 22.0 °C 5.0 °C 33% 1017.8 hPa 16.1 km East 9.3 km/h / 2.6 m/s - N/A   Clear
1:15 PM 23.0 °C 6.0 °C 33% 1017.8 hPa 16.1 km East 14.8 km/h / 4.1 m/s - N/A   Clear
1:35 PM 23.0 °C 6.0 °C 33% 1017.5 hPa 16.1 km East 13.0 km/h / 3.6 m/s - N/A   Clear
1:55 PM 23.0 °C 6.0 °C 33% 1017.8 hPa 16.1 km East 13.0 km/h / 3.6 m/s - N/A   Clear
2:15 PM 24.0 °C 6.0 °C 31% 1017.8 hPa 16.1 km East 5.6 km/h / 1.5 m/s - N/A   Clear
2:35 PM 24.0 °C 7.0 °C 34% 1017.8 hPa 16.1 km East 11.1 km/h / 3.1 m/s - N/A   Clear
2:55 PM 25.0 °C 7.0 °C 32% 1017.8 hPa 16.1 km ESE 13.0 km/h / 3.6 m/s - N/A   Clear
3:15 PM 24.0 °C 7.0 °C 34% 1017.2 hPa 16.1 km East 11.1 km/h / 3.1 m/s - N/A   Clear
3:35 PM 24.0 °C 7.0 °C 34% 1017.2 hPa 16.1 km East 11.1 km/h / 3.1 m/s - N/A   Clear
3:55 PM 24.0 °C 7.0 °C 34% 1017.2 hPa 16.1 km ESE 7.4 km/h / 2.1 m/s - N/A   Clear
4:15 PM 24.0 °C 7.0 °C 34% 1016.8 hPa 16.1 km East 7.4 km/h / 2.1 m/s - N/A   Clear
4:35 PM 24.0 °C 8.0 °C 36% 1016.8 hPa 16.1 km East 11.1 km/h / 3.1 m/s - N/A   Clear
4:55 PM 23.0 °C 8.0 °C 38% 1016.1 hPa 16.1 km East 11.1 km/h / 3.1 m/s - N/A   Clear
5:15 PM 23.0 °C 8.0 °C 38% 1015.8 hPa 16.1 km East 13.0 km/h / 3.6 m/s - N/A   Clear
5:35 PM 23.0 °C 9.0 °C 41% 1015.5 hPa 16.1 km East 13.0 km/h / 3.6 m/s - N/A   Clear
5:55 PM 23.0 °C 9.0 °C 41% 1015.5 hPa 16.1 km East 20.4 km/h / 5.7 m/s - N/A   Clear
6:15 PM 22.0 °C 8.0 °C 41% 1015.1 hPa 16.1 km East 14.8 km/h / 4.1 m/s - N/A   Clear
6:35 PM 22.0 °C 7.0 °C 38% 1014.8 hPa 16.1 km East 13.0 km/h / 3.6 m/s - N/A   Clear
7:35 PM 20.0 °C 3.0 °C 33% 1015.1 hPa 16.1 km East 16.7 km/h / 4.6 m/s 25.9 km/h / 7.2 m/s N/A   Clear
7:55 PM 19.0 °C 2.0 °C 32% 1015.5 hPa 16.1 km East 14.8 km/h / 4.1 m/s - N/A   Clear
8:15 PM 18.0 °C 2.0 °C 34% 1015.1 hPa 16.1 km East 13.0 km/h / 3.6 m/s - N/A   Clear
8:35 PM 17.0 °C 0.0 °C 32% 1015.1 hPa 16.1 km East 11.1 km/h / 3.1 m/s - N/A   Clear
8:55 PM 17.0 °C 0.0 °C 32% 1014.4 hPa 16.1 km East 14.8 km/h / 4.1 m/s - N/A   Clear
9:15 PM 16.0 °C 0.0 °C 34% 1014.8 hPa 16.1 km East 7.4 km/h / 2.1 m/s - N/A   Clear
9:35 PM 16.0 °C 0.0 °C 34% 1014.8 hPa 16.1 km East 14.8 km/h / 4.1 m/s - N/A   Clear
9:55 PM 16.0 °C 0.0 °C 34% 1014.4 hPa 16.1 km East 13.0 km/h / 3.6 m/s 25.9 km/h / 7.2 m/s N/A   Clear
10:35 PM 16.0 °C 0.0 °C 34% 1014.8 hPa 16.1 km East 16.7 km/h / 4.6 m/s 27.8 km/h / 7.7 m/s N/A   Mostly Cloudy
11:15 PM 16.0 °C -4.0 °C 25% 1014.1 hPa 16.1 km East 18.5 km/h / 5.1 m/s 27.8 km/h / 7.7 m/s N/A   Scattered Clouds
11:35 PM 16.0 °C -3.0 °C 27% 1013.1 hPa 16.1 km East 22.2 km/h / 6.2 m/s - N/A   Scattered Clouds
11:55 PM 15.0 °C -2.0 °C 31% 1013.4 hPa 16.1 km ENE 16.7 km/h / 4.6 m/s 29.6 km/h / 8.2 m/s N/A   Clear